Temp
-8 -8 -8 -7 -7 -8 -8 -8 -8 -8 -7 -8 -8 -8 -8 -8 -8 -8 -8 -9 -9 -9 -9 -9 -9 -9 -9 -9 -9 -9 -9 -9
-7 -8 -8 -8 -7 -7 -8 -8 -8 -8 -8 -8 -8 -8 -8 -8 -8 -8 -9 -9 -9 -9 -9 -9 -9 -9 -9 -9 -9 -9 -9 -9
-7 -7 -8 -8 -8 -8 -7 -8 -8 -8 -8 -8 -8 -8 -8 -8 -8 -9 -9 -9 -9 -9 -9 -9 -9 -9 -9 -9 -9 -9 -9 -9
-8 -7 -7 -7 -8 -8 -8 -8 -8 -8 -8 -8 -8 -8 -8 -8 -8 -8 -8 -9 -9 -9 -9 -9 -9 -9 -9 -9 -9 -9 -8 -9
-8 -8 -8 -7 -7 -8 -8 -8 -8 -8 -8 -8 -8 -8 -8 -8 -8 -8 -8 -8 -8 -8 -9 -9 -9 -9 -9 -9 -8 -8 -8 -9
-8 -8 -8 -8 -8 -8 -8 -8 -8 -8 -8 -8 -8 -8 -8 -8 -8 -8 -8 -8 -8 -8 -8 -8 -8 -8 -8 -8 -9 -8 -8 -8
-8 -8 -8 -8 -8 -8 -8 -7 -8 -8 -8 -8 -8 -8 -8 -8 -8 -8 -8 -8 -8 -8 -8 -8 -8 -8 -8 -8 -8 -8 -8 -8
-8 -8 -8 -8 -8 -8 -8 -8 -8 -8 -8 -8 -8 -8 -8 -8 -8 -8 -8 -8 -8 -8 -8 -8 -8 -8 -8 -8 -8 -8 -8 -8
-9 -9 -8 -8 -8 -8 -8 -8 -8 -8 -8 -8 -8 -8 -9 -9 -9 -9 -9 -8 -8 -9 -9 -9 -9 -9 -9 -8 -9 -9 -9 -9
-9 -9 -9 -9 -8 -8 -8 -8 -8 -8 -8 -8 -8 -8 -8 -9 -9 -9 -9 -9 -9 -9 -9 -9 -9 -9 -9 -9 -9 -9 -9 -9
-9 -9 -9 -9 -9 -9 -8 -8 -9 -8 -8 -8 -8 -8 -8 -8 -9 -9 -9 -9 -9 -9 -9 -9 -9 -9 -9 -9 -9 -9 -9 -9
-9 -9 -10 -10 -10 -10 -10 -9 -9 -9 -9 -8 -8 -8 -8 -8 -8 -9 -9 -9 -9 -9 -9 -9 -9 -9 -9 -9 -9 -9 -9 -9
-9 -9 -9 -10 -10 -10 -10 -10 -10 -9 -9 -9 -9 -9 -8 -8 -8 -8 -8 -9 -9 -9 -9 -9 -9 -9 -9 -9 -9 -9 -9 -9
-10 -9 -9 -10 -10 -10 -10 -11 -10 -11 -10 -10 -10 -9 -9 -8 -8 -8 -8 -8 -9 -9 -9 -10 -9 -9 -9 -9 -9 -9 -9 -10
-10 -10 -10 -10 -10 -10 -10 -10 -10 -11 -11 -11 -10 -10 -10 -9 -9 -9 -9 -8 -8 -8 -9 -9 -9 -10 -9 -9 -9 -9 -10 -9
-10 -10 -11 -10 -10 -10 -10 -10 -10 -11 -10 -11 -11 -11 -10 -10 -10 -9 -9 -9 -9 -9 -8 -8 -9 -9 -9 -9 -9 -9 -9 -9
-10 -10 -10 -11 -11 -11 -10 -10 -10 -11 -11 -11 -11 -11 -11 -11 -10 -10 -9 -9 -9 -9 -9 -9 -8 -8 -8 -9 -9 -9 -9 -8
-10 -10 -10 -10 -10 -11 -11 -11 -11 -11 -11 -11 -11 -10 -11 -11 -11 -11 -10 -10 -9 -9 -9 -9 -9 -9 -9 -8 -8 -8 -9 -9
-11 -11 -11 -11 -11 -11 -11 -11 -11 -11 -11 -11 -11 -11 -10 -11 -11 -11 -11 -11 -10 -10 -10 -9 -9 -9 -9 -9 -9 -8 -8 -8
-12 -12 -12 -13 -13 -13 -13 -12 -12 -12 -12 -12 -12 -12 -11 -11 -11 -11 -11 -11 -11 -11 -11 -10 -10 -10 -10 -10 -10 -9 -9 -9
Height
5886 5885 5885 5885 5885 5886 5885 5885 5884 5884 5883 5882 5882 5881 5881 5881 5882 5883 5883 5885 5886 5887 5888 5889 5890 5891 5892 5893 5894 5895 5896 5896
5889 5887 5886 5886 5886 5886 5887 5887 5886 5886 5886 5885 5884 5884 5884 5884 5884 5885 5886 5887 5888 5889 5889 5890 5891 5892 5893 5894 5894 5895 5896 5897
5890 5889 5888 5886 5886 5886 5886 5887 5888 5888 5888 5888 5887 5886 5886 5886 5886 5886 5887 5888 5889 5890 5891 5892 5892 5893 5893 5894 5894 5895 5896 5896
5891 5890 5890 5889 5887 5886 5886 5886 5887 5887 5888 5889 5889 5888 5888 5887 5887 5888 5888 5888 5889 5890 5891 5892 5892 5893 5893 5894 5894 5895 5895 5896
5889 5890 5889 5889 5888 5887 5886 5886 5886 5886 5887 5888 5888 5889 5888 5888 5888 5888 5888 5889 5889 5890 5890 5891 5891 5892 5892 5893 5894 5894 5894 5895
5888 5888 5888 5889 5888 5887 5887 5886 5885 5885 5885 5886 5886 5887 5888 5888 5888 5888 5889 5889 5889 5889 5890 5890 5890 5890 5891 5892 5893 5893 5894 5894
5886 5886 5887 5887 5887 5887 5886 5885 5885 5885 5884 5883 5884 5885 5886 5886 5887 5888 5888 5888 5888 5889 5889 5889 5889 5889 5890 5890 5890 5891 5891 5892
5883 5883 5883 5884 5884 5884 5884 5885 5883 5883 5883 5883 5882 5882 5882 5884 5885 5885 5886 5886 5886 5887 5887 5887 5888 5888 5888 5888 5888 5888 5888 5889
5880 5880 5880 5880 5880 5881 5882 5882 5883 5883 5882 5880 5881 5881 5880 5880 5881 5882 5883 5883 5883 5883 5884 5884 5885 5885 5885 5885 5885 5885 5885 5885
5872 5874 5875 5876 5876 5877 5878 5879 5880 5880 5879 5880 5878 5877 5878 5877 5877 5877 5876 5878 5879 5879 5879 5880 5880 5880 5880 5880 5880 5880 5880 5880
5867 5867 5868 5870 5871 5872 5873 5873 5874 5875 5876 5875 5876 5875 5874 5873 5873 5872 5871 5871 5872 5873 5874 5874 5874 5874 5874 5874 5875 5875 5875 5875
5860 5861 5862 5863 5864 5865 5866 5868 5869 5870 5870 5871 5870 5871 5870 5870 5869 5867 5866 5866 5866 5865 5866 5867 5867 5867 5866 5867 5868 5868 5868 5869
5850 5852 5853 5854 5854 5855 5857 5860 5864 5864 5863 5863 5863 5864 5865 5864 5863 5862 5861 5861 5860 5859 5858 5858 5859 5860 5860 5861 5859 5860 5861 5862
5840 5841 5843 5844 5845 5845 5848 5850 5851 5851 5852 5852 5854 5855 5855 5855 5854 5854 5854 5854 5854 5853 5852 5852 5851 5849 5851 5850 5853 5853 5855 5854
5829 5830 5831 5831 5833 5835 5835 5836 5837 5839 5840 5841 5843 5844 5844 5844 5844 5844 5845 5845 5846 5846 5846 5844 5844 5842 5841 5841 5844 5847 5845 5848
5817 5817 5817 5818 5820 5821 5821 5821 5823 5824 5826 5828 5830 5830 5832 5831 5833 5832 5834 5835 5836 5837 5836 5836 5835 5836 5833 5834 5835 5835 5837 5840
5806 5805 5803 5803 5804 5805 5805 5807 5807 5808 5810 5812 5814 5815 5817 5818 5819 5820 5821 5822 5823 5826 5826 5826 5825 5825 5825 5827 5826 5827 5827 5829
5793 5792 5791 5789 5789 5788 5789 5789 5789 5790 5792 5794 5797 5798 5799 5801 5805 5807 5810 5811 5812 5814 5815 5815 5815 5816 5817 5817 5818 5819 5820 5819
5782 5779 5777 5775 5772 5771 5770 5769 5769 5769 5771 5774 5777 5779 5781 5782 5786 5789 5793 5796 5798 5799 5800 5801 5802 5804 5806 5808 5808 5809 5811 5811
5772 5769 5767 5763 5760 5757 5753 5749 5748 5748 5749 5752 5754 5757 5761 5763 5762 5769 5773 5776 5780 5782 5785 5786 5786 5788 5791 5793 5795 5796 5797 5798
Wind_Speed
12 10 7 5 5 4 3 3 3 4 6 7 8 11 12 13 13 13 12 11 10 10 9 8 8 7 7 6 5 4 3 3
11 10 8 6 3 3 2 1 1 1 2 5 6 7 8 9 9 10 8 8 7 7 6 6 5 4 4 4 3 3 2 3
11 9 8 5 3 1 1 1 1 2 2 2 4 5 6 7 6 7 7 6 5 5 5 5 4 4 4 3 3 2 2 2
10 11 9 7 4 1 1 3 2 3 3 3 3 4 6 6 6 6 7 7 7 7 5 4 3 3 3 3 3 2 2 2
8 11 12 8 7 4 2 3 5 5 5 5 6 6 6 7 7 8 7 7 7 6 5 5 4 3 4 4 4 3 4 4
12 11 12 14 11 8 7 5 6 7 8 9 9 9 9 9 8 8 8 9 8 8 8 7 6 6 6 6 6 7 8 8
18 16 15 14 16 16 12 9 8 8 10 11 13 13 13 12 12 12 11 11 12 12 12 11 10 10 10 11 11 11 12 12
22 21 20 17 18 18 18 17 14 11 11 12 13 14 15 16 16 16 17 16 17 16 16 16 16 16 16 16 15 15 16 15
30 28 25 24 22 21 21 21 20 19 17 14 14 15 16 16 18 19 21 21 20 20 19 20 20 20 20 20 19 18 17 17
36 34 33 31 29 27 26 25 25 24 22 21 19 18 18 19 19 20 21 22 22 22 23 22 22 23 23 22 21 21 20 20
39 40 39 38 37 35 32 30 28 29 26 24 25 25 24 22 23 23 24 23 23 24 24 24 24 25 25 25 24 23 23 23
41 44 44 43 43 43 42 39 36 34 34 33 30 30 30 30 28 27 28 27 26 25 25 28 28 29 29 27 27 26 26 26
45 45 47 49 48 49 49 47 45 43 41 39 38 35 35 35 36 35 33 30 30 29 29 30 29 32 33 30 31 30 29 29
47 49 49 51 53 55 54 54 52 50 49 48 45 44 41 41 42 41 40 38 35 33 32 32 32 33 33 36 34 33 30 32
44 47 52 55 55 58 60 60 61 60 59 55 53 51 51 49 47 47 45 45 43 40 38 38 36 37 35 36 35 32 36 32
45 47 50 53 56 60 62 66 67 67 66 65 62 59 57 57 55 53 52 51 48 47 46 45 45 42 43 38 36 37 37 35
47 49 52 54 56 60 64 70 72 74 73 72 71 69 66 63 64 62 59 57 55 53 51 52 52 51 49 46 44 41 41 39
43 47 50 53 58 62 64 70 75 79 79 79 78 78 74 73 69 68 67 65 62 60 58 58 58 56 55 53 52 48 47 46
36 38 41 45 50 55 62 69 75 81 85 85 85 84 83 81 77 76 72 72 70 67 65 64 63 62 60 59 58 56 55 53
31 33 34 39 42 45 53 58 64 78 85 89 90 89 90 90 86 82 81 77 75 75 72 70 69 67 65 64 63 62 60 60
Wind_Direction
63 67 58 60 62 66 77 119 119 111 114 116 120 122 126 125 122 121 120 120 120 122 126 127 126 130 140 153 162 175 177 189
26 50 63 52 65 71 62 45 131 131 129 131 137 138 139 143 142 141 142 144 146 144 135 131 136 147 164 178 188 193 220 292
345 3 29 59 55 64 123 57 319 269 249 216 162 159 160 159 160 166 164 163 163 156 149 155 162 175 187 199 216 245 280 309
316 323 337 356 26 16 243 213 225 269 279 273 252 203 180 177 179 184 182 179 172 170 166 162 173 194 215 220 228 245 257 269
296 303 303 309 324 338 264 251 234 234 244 257 258 248 228 205 200 199 198 207 209 209 213 211 209 220 227 235 246 256 266 264
291 289 295 293 293 294 305 270 244 235 237 242 249 257 263 253 235 227 229 223 229 236 236 239 240 236 234 246 257 262 264 267
272 281 286 292 290 287 280 276 283 262 241 233 239 246 255 258 263 257 248 251 252 254 261 261 251 249 251 256 259 261 262 264
264 268 272 279 284 279 277 279 272 266 268 259 247 241 245 251 254 256 260 257 255 255 256 259 263 263 258 255 254 256 259 258
278 272 267 270 271 275 276 274 272 274 273 267 270 263 252 250 252 256 256 256 258 259 256 255 255 257 259 259 259 257 257 256
264 265 268 268 268 267 270 276 276 270 269 273 269 266 264 259 253 253 256 260 262 262 262 260 258 257 257 257 256 256 256 253
260 261 265 266 269 268 264 263 268 270 273 275 269 268 265 257 256 255 253 252 256 262 264 264 263 262 261 258 257 259 255 252
259 259 260 262 264 267 269 263 263 266 272 269 271 271 267 265 261 253 252 252 251 249 254 259 259 259 260 259 259 255 254 252
259 256 255 255 258 261 264 266 270 266 265 266 265 263 269 268 263 260 257 253 249 250 248 249 254 260 260 260 257 256 253 250
257 257 256 256 256 257 259 261 261 257 261 262 263 264 259 264 263 259 257 256 252 249 247 249 248 251 255 256 258 255 255 254
268 262 257 253 253 254 256 256 258 259 261 256 259 259 259 255 256 260 258 257 255 252 251 250 248 249 249 252 254 257 256 255
271 268 265 262 259 253 252 253 254 255 257 258 258 255 258 257 252 253 256 258 256 255 252 252 252 252 253 253 249 250 250 249
277 274 272 268 262 258 255 252 252 252 252 253 255 256 255 255 259 252 252 253 255 254 255 256 254 252 254 253 253 250 249 247
281 278 275 272 269 264 259 254 252 251 252 250 250 251 251 254 254 256 256 254 255 256 256 256 258 259 257 256 256 254 255 256
289 290 288 283 277 270 266 259 254 251 251 251 250 249 250 248 250 252 253 255 255 255 255 257 257 259 260 261 261 260 259 257
302 304 305 300 296 290 283 277 268 254 251 251 251 250 248 249 244 247 249 251 253 254 255 256 256 257 258 260 262 262 263 264